Regional Weather Roundup
Issued by NWS Little Rock, AR

Home | Current Version | Previous Version | Text Only | Print | Product List | Glossary Off
Versions: 1 2 3 4 5 6 7 8 9 10 11 12 13 14 15 16 17 18 19 20 21 22 23 24 25 26 27 28 29 30 31 32 33 34 35 36 37 38 39 40 41 42 43 44 45 46 47 48 49 50

024
ASUS44 KLZK 261605
RWRLZK

WEATHER ROUNDUP FOR ARKANSAS
NATIONAL WEATHER SERVICE LITTLE ROCK AR
1100 AM CDT MON SEP 26 2016

NOTE: "FAIR" INDICATES FEW OR NO CLOUDS BELOW 12,000 FEET WITH NO
SIGNIFICANT WEATHER AND/OR OBSTRUCTIONS TO VISIBILITY.

ARZ001-003-010-029-261700-
NORTHWEST ARKANSAS

CITY           SKY/WX    TMP DP  RH WIND       PRES   REMARKS
FAYETTEVILLE   CLOUDY    68  58  70 NE6       30.25S
FORT SMITH     CLOUDY    69  55  60 N5        30.23R
HARRISON       MOSUNNY   67  57  70 N8        30.25S
BENTONVILLE    SUNNY     66  52  59 NE12      30.26S
ROGERS         MOSUNNY   66  52  60 NE12      30.27R
SILOAM SPGS    SUNNY     66  50  55 N10G16    30.27R
HIGHFILL       MOSUNNY   68  56  65 NE9       30.26S
SPRINGDALE     MOSUNNY   66  55  68 N10       30.27S
$$

ARZ004-005-016-261700-
NORTH CENTRAL ARKANSAS

CITY           SKY/WX    TMP DP  RH WIND       PRES   REMARKS
BATESVILLE     PTSUNNY   64  52  63 N3        30.21F
FLIPPIN        CLOUDY    66  54  63 N7        30.21S
MTN HOME       CLOUDY    67  57  70 CALM      30.22F
$$

ARZ040-041-261700-
WEST CENTRAL ARKANSAS

CITY           SKY/WX    TMP DP  RH WIND       PRES   REMARKS
MENA           CLOUDY    68  61  77 N6        30.22R
MOUNT IDA      CLOUDY    69  55  60 VRB5      30.19R
$$

ARZ009-017-025-026-028-261700-
NORTHEAST ARKANSAS

CITY           SKY/WX    TMP DP  RH WIND       PRES   REMARKS
CORNING          N/A     66  55  68 N7        30.19F
JONESBORO      CLOUDY    68  51  54 NE16      30.18R
NEWPORT        CLOUDY    66  54  63 N14       30.19R HAZE
WALNUT RIDGE   CLOUDY    66  52  59 N15       30.19S
BLYTHEVILLE    CLOUDY    71  57  61 N15       30.16S
NW BLYTHEVILLE CLOUDY   N/A N/A N/A N18G28    30.16S
$$

ARZ022-023-033-042-044-261700-
CENTRAL ARKANSAS

CITY           SKY/WX    TMP DP  RH WIND       PRES   REMARKS
LITTLE ROCK    CLOUDY    72  54  53 N15       30.19R
N LITTLE ROCK    N/A     69  56  63 N9G17     30.16R
JACKSONVILLE   CLOUDY    70  54  56 N13G18    30.18R
SEARCY         CLOUDY    70  52  52 NE18G24   30.20R
HOT SPRINGS    CLOUDY    70  54  56 NE13G20   30.19R
RUSSELLVILLE   CLOUDY    68  52  56 NE8       30.21S
$$

ARZ036-261700-
EAST ARKANSAS

CITY           SKY/WX    TMP DP  RH WIND       PRES   REMARKS
WEST MEMPHIS   CLOUDY    73  57  57 N16G23    30.13S
$$

ARZ050-053-066-070-073-261700-
SOUTHWEST ARKANSAS

CITY           SKY/WX    TMP DP  RH WIND       PRES   REMARKS
ARKADELPHIA    CLOUDY    70  60  70 NE12G21   30.18R
TEXARKANA      CLOUDY    75  64  68 NE8G18    30.15R
EL DORADO      CLOUDY    75  62  64 N13G28    30.13R
DE QUEEN       CLOUDY    71  63  75 NE6       30.15R
$$

ARZ056-057-069-261700-
SOUTHEAST ARKANSAS

CITY           SKY/WX    TMP DP  RH WIND       PRES   REMARKS
PINE BLUFF     MOSUNNY   72  57  59 N14       30.16R
STUTTGART      CLOUDY    72  55  56 N18       30.16S
MONTICELLO     CLOUDY    70  59  68 N9G18     30.15R

$$






USA.gov is the U.S. government's official web portal to all federal, state and local government web resources and services.